STARLINK-33884, 63770

Orbit data source: Space-Track

STARLINK-33884, 63770 is a payload satellite owned by SpaceX/Seattle (US) in LEO that was launched on Tue, 29 Apr 2025 UTC via an FALCON 9 launch vehicle from the Air Force Eastern Test Range (AFETR). Payload-class satellites include a variety of spacecraft equipped with specific instruments for various scientific and technological missions. These include communications satellites like Starlink; space stations such as the ISS; scientific satellites like the Hubble; Earth observation satellites from companies like Planet Labs, Umbra, and HawkEye 360; GPS; miniature CubeSats for education and research; and military/defense satellites.

Loading next visibility...
Identifier
63770, 2025-089V
Orbit
LEO
Country
Flag of USUS
Related business
Manufacturer
SpaceX/Seattle
Mission
Operational Commercial Communications
Bus & Motor
STARLINK V2MO, Unknown motor
Mass
575 kg wet, ~530 kg dry
Launch date (UTC)
2025-04-29 (1 year ago)
Launch vehicle
FALCON 9
Launch site
Air Force Eastern Test Range (AFETR)
Object type
Payload
Rocket body
Debris
Shape & HBR
Box + 2 Pan, 17.7 m
Radar Cross Section
36.964 m², Large (>1 m²)

Expand to show TLE details & history
Last TLE update: 18 hours ago

TLE from 18 hours ago
0 STARLINK-33884
1 63770U 25089V   26171.10677681  .00009754  00000-0  36333-3 0  9996
2 63770  43.0016 186.6025 0002187 280.3850  79.6755 15.27595973 64575
Epoch: 2026-06-20T02:33Z
TLE epoch observation values (Epoch: 2026-06-20T02:33:45.516Z)
Latitude
-0.00002°
Longitude
-120.16333°
Altitude
482.508 km
Speed
7.626 km/s
True Right ascension
12h 26m 24s
True Declination
0° 00' 00"
Sunlit
Object was in daylight at epoch
Visualization orbit readout
Latitude
Unknown
Longitude
Unknown
Altitude
Unknown
Speed
Unknown
Apparent Right ascension
Unknown
Apparent Declination
Unknown
Sunlit
N/A
Visualization observer readout
Local Sidereal Time
07:17:56
Azimuth
Unknown
Elevation
Unknown
Doppler factor
Unknown
Orbital elements
Apogee altitude
486.447 km
Perigee altitude
483.445 km
Semi-major axis
6,863.083 km
Eccentricity
0.00022
Inclination
43.0016°
RAAN
186.6025°
Arg. of periapsis
280.385°
True anomaly
79.70016°
Mean anomaly
79.6755°
Eccentric anomaly
79.68783°
Mean motion
3.81737 °/min
Orbital period
94.31 mins
BSTAR
0.00036333
Loading maneuver chart data...
Computing Atmospheric mass density...
Loading historical data...
Loading historical data...
Loading historical data...
Loading historical data...
Loading historical data...
Loading historical data...
Loading historical data...

Documentation

Showing up to 5 results
|